Regional Weather Roundup
Issued by NWS

Home | Current Version | Previous Version | Graphics & Text | Print | Product List | Glossary On
Versions: 1 2 3 4 5 6 7 8 9 10 11 12 13 14 15 16 17 18 19 20 21 22 23 24 25 26 27 28 29 30 31 32 33 34 35 36 37 38 39 40 41 42 43 44 45 46 47 48 49 50
000
ASUS43 KDMX 100007
RWRIA

WEATHER ROUNDUP FOR IOWA
NATIONAL WEATHER SERVICE DES MOINES IA
700 PM CDT WED JUL 09 2014

NOTE: "FAIR" INDICATES FEW OR NO CLOUDS BELOW 12,000 FEET WITH NO
SIGNIFICANT WEATHER AND/OR OBSTRUCTIONS TO VISIBILITY.

* - THESE STATIONS ARE NOT NWS STATIONS...THUS NOT UNDER NWS
QUALITY CONTROL.  THEY ALSO DO NOT REPORT WEATHER SUCH
AS PRECIPITATION OR FOG.

IAZ001>003-012>014-020>022-031>034-043>046-100100-
   NORTHWEST IOWA

CITY           SKY/WX    TMP DP  RH WIND       PRES   REMARKS
CARROLL *      SUNNY     77  63  61 SW5       30.00F
CHEROKEE *     SUNNY     78  62  57 SW5       29.99F
DENISON *      SUNNY     77  63  61 CALM      29.99F
LE MARS *      SUNNY     79  63  57 SW3       29.99S HX  80
ORANGE CITY *  SUNNY     81  59  47 CALM      29.99F HX  81
SHELDON *      SUNNY     79  59  50 W5        29.98F HX  80
SIOUX CITY     SUNNY     79  61  53 SW6       29.98F HX  80
6HR MIN TEMP:  79; 6HR MAX TEMP:  83;

SPENCER        PTSUNNY   78  61  55 CALM      30.00F HX  80
6HR MIN TEMP:  76; 6HR MAX TEMP:  81;

STORM LAKE *   SUNNY     77  63  61 W5        30.01F
$$

IAZ055>058-069>071-079>083-090>094-100100-
   SOUTHWEST IOWA

CITY           SKY/WX    TMP DP  RH WIND       PRES   REMARKS
ATLANTIC *     SUNNY     77  63  61 S5        30.01F
AUDUBON *      SUNNY     81  64  57 CALM      30.03F HX  82
CLARINDA *     MOSUNNY   79  68  69 CALM      30.03S HX  81
COUNCIL BLFS * PTSUNNY   77  66  69 S6        30.00F
CRESTON *      PTSUNNY   77  59  53 CALM      30.04S
HARLAN  *      SUNNY     79  64  61 CALM      30.04F HX  81
LAMONI         PTSUNNY   78  59  51 N3        30.03F
6HR MIN TEMP:  76; 6HR MAX TEMP:  80;

RED OAK *      MOSUNNY   79  64  61 CALM      30.02S HX  81
SHENANDOAH *   PTSUNNY   77  66  69 SE5       30.02F
$$

IAZ047>049-059>061-072>074-084-100100-
   CENTRAL IOWA

CITY           SKY/WX    TMP DP  RH WIND       PRES   REMARKS
AMES           SUNNY     77  59  53 W6        30.00F
6HR MIN TEMP:  75; 6HR MAX TEMP:  79;

ANKENY *       SUNNY     79  59  50 SW5       30.00F HX  80
CHARITON *     SUNNY     77  57  50 CALM      30.02F
DES MOINES     MOSUNNY   79  56  45 W5        30.00F HX  80
6HR MIN TEMP:  78; 6HR MAX TEMP:  82;

GRINNELL*      SUNNY     75  58  53 W3        30.03F
KNOXVILLE *    SUNNY     77  55  47 CALM      30.01F
MARSHALLTOWN   MOSUNNY   75  60  59 SW5       30.01F
6HR MIN TEMP:  75; 6HR MAX TEMP:  78;

PELLA *        SUNNY     79  58  47 CALM      30.03F HX  80
PERRY *          N/A     77  61  57 SW5       30.01F
$$

IAZ004>006-015-016-023>025-035-036-100100-
   NORTH CENTRAL IOWA

CITY           SKY/WX    TMP DP  RH WIND       PRES   REMARKS
ALGONA *       CLOUDY    77  59  53 CALM      30.00F
CLARION *      MOSUNNY   75  59  57 W6        30.00S
ESTHERVILLE    PTSUNNY   75  56  51 N7        30.00F
6HR MIN TEMP:  75; 6HR MAX TEMP:  80;

FORT DODGE *   PTSUNNY   75  61  60 SW3       30.01S
MASON CITY     MOSUNNY   77  56  48 W5        30.01F
6HR MIN TEMP:  75; 6HR MAX TEMP:  80;

FOREST CITY *  PTSUNNY   75  54  46 NW6       30.00S
IOWA FALLS *   PTSUNNY   76  58  53 CALM      30.02F
$$

IAZ007>011-017>019-026>030-037>042-050>054-066-100100-
   NORTHEAST IOWA

CITY           SKY/WX    TMP DP  RH WIND       PRES   REMARKS
CEDAR RAPIDS   SUNNY     75  57  53 W6        30.01S
6HR MIN TEMP:  73; 6HR MAX TEMP:  78;

CHARLES CITY * SUNNY     75  57  53 CALM      30.01S
CLINTON *      SUNNY     75  55  50 N6        30.04S
DECORAH *        N/A    N/A N/A N/A MISG        N/A
DUBUQUE        MOSUNNY   72  56  57 N6        30.02F
6HR MIN TEMP:  71; 6HR MAX TEMP:  75;

MONTICELLO *   SUNNY     75  55  50 W6        30.01S
OELWEIN *      MOSUNNY   75  -6   4 CALM      30.02S
WATERLOO       SUNNY     77  55  46 W6        29.99F
6HR MIN TEMP:  75; 6HR MAX TEMP:  80;

$$

IAZ064-065-067-068-078-100100-
   EAST CENTRAL IOWA

CITY           SKY/WX    TMP DP  RH WIND       PRES   REMARKS
DAVENPORT      MOSUNNY   72  61  68 W3        30.03R
6HR MIN TEMP:  72; 6HR MAX TEMP:  78;

IOWA CITY      SUNNY     77  56  48 W6        30.03S
6HR MIN TEMP:  75; 6HR MAX TEMP:  79;

MT. PLEASANT * SUNNY     77  52  40 N3        30.03S
MUSCATINE *    SUNNY     77  57  50 W7        30.02S
QUAD CITIES    PTSUNNY   75  54  47 NW5       30.01S
6HR MIN TEMP:  75; 6HR MAX TEMP:  80;

$$

IAZ062-063-075>077-085>089-095>099-100100-
   SOUTHEAST IOWA

CITY           SKY/WX    TMP DP  RH WIND       PRES   REMARKS
BURLINGTON     MOSUNNY   77  56  48 N7        30.02F
6HR MIN TEMP:  75; 6HR MAX TEMP:  80;

FAIRFIELD *    SUNNY     75  57  53 NW6       30.03F
FORT MADISON * MOSUNNY   77  57  50 CALM      30.04S
KEOKUK *       SUNNY     77  57  50 N5        30.02F
OSKALOOSA *      N/A     76  59  55 W3        30.03F
CENTERVILLE *  SUNNY     75  63  64 CALM      30.05F
OTTUMWA        SUNNY     76  57  51 NW6       30.02S
6HR MIN TEMP:  73; 6HR MAX TEMP:  79;

WASHINGTON *   SUNNY     77  59  53 NW5       30.03S
$$

ABBREVIATIONS USED IN REMARKS
   TC - TEMPERATURES IN CELSIUS
  WCI - WIND CHILL INDEX
   HX - HEAT INDEX
  VSB - VISIBILITY
$$



USA.gov is the U.S. government's official web portal to all federal, state and local government web resources and services.